EW3966 Weather Reports


Display with metric or nautical units.
time (UTC)temp
F
wind
direction
speed
MPH
gust
MPH
rain 1hr
in
rain 24hr
in
rain mn
in
humidity
%
barometer
mb
20260903050010 42 263 2.0 5.0 0.00 0.00 0.00 94 1022.6
20260903045510 41 259 2.0 4.0 0.00 0.00 0.00 94 1022.6
20260903045009 40 259 2.0 4.0 0.00 0.00 0.00 93 1022.6
20260903044009 40 260 2.0 3.0 0.00 0.00 0.00 93 1022.6
20260903043511 40 260 1.0 2.0 0.00 0.00 0.00 93 1022.6
20260903043009 40 260 1.0 2.0 0.00 0.00 0.00 92 1022.6
20260903042510 41 260 1.0 2.0 0.00 0.00 0.00 92 1022.7
20260903042009 42 260 1.0 4.0 0.00 0.00 0.00 93 1022.7
20260903041508 42 260 1.0 4.0 0.00 0.00 0.00 93 1022.8
20260903041008 43 260 1.0 4.0 0.00 0.00 0.00 93 1022.8
20260903040507 43 260 2.0 3.0 0.00 0.00 0.00 94 1022.8
20260903040009 43 260 2.0 3.0 0.00 0.00 0.00 94 1022.8
20260903035506 43 260 2.0 3.0 0.00 0.00 0.00 94 1022.8
20260903035005 42 260 1.0 5.0 0.00 0.00 0.00 94 1022.9
20260903034005 41 262 2.0 5.0 0.00 0.00 0.00 93 1022.9
20260903033504 41 259 2.0 4.0 0.00 0.00 0.00 93 1022.8
20260903033003 41 259 2.0 4.0 0.00 0.00 0.00 93 1022.7
20260903032502 41 259 2.0 4.0 0.00 0.00 0.00 93 1022.8
20260903032003 40 259 2.0 4.0 0.00 0.00 0.00 93 1022.8
20260903031501 40 259 2.0 4.0 0.00 0.00 0.00 93 1022.9
20260903031003 40 259 2.0 3.0 0.00 0.00 0.00 93 1022.9
20260903030502 41 259 2.0 3.0 0.00 0.00 0.00 93 1022.8
20260903030101 40 259 1.0 3.0 0.00 0.00 0.00 93 1022.8
20260903025559 40 258 2.0 4.0 0.00 0.00 0.00 93 1022.7
20260903025059 39 244 2.0 3.0 0.00 0.00 0.00 93 1022.8
20260903024700 39 244 1.0 2.0 0.00 0.00 0.00 92 1022.8
20260903024059 39 244 1.0 2.0 0.00 0.00 0.00 92 1022.8
20260903023558 39 244 1.0 2.0 0.00 0.00 0.00 92 1022.8
20260903023120 39 244 1.0 3.0 0.00 0.00 0.00 92 1022.8
20260903022557 39 244 2.0 3.0 0.00 0.00 0.00 92 1022.9
20260903022058 40 244 2.0 4.0 0.00 0.00 0.00 92 1022.9
20260903021555 40 244 2.0 4.0 0.00 0.00 0.00 92 1022.9
20260903021055 40 244 2.0 3.0 0.00 0.00 0.00 92 1022.9
20260903020555 40 247 1.0 3.0 0.00 0.00 0.00 92 1022.9
20260903020057 41 249 1.0 3.0 0.00 0.00 0.00 92 1023.0
20260903015555 41 251 1.0 3.0 0.00 0.00 0.00 92 1022.9
20260903015054 41 251 1.0 3.0 0.00 0.00 0.00 92 1023.0
20260903014653 40 251 2.0 3.0 0.00 0.00 0.00 92 1022.9
20260903014053 40 250 2.0 3.0 0.00 0.00 0.00 92 1022.9
20260903013553 40 248 1.0 3.0 0.00 0.00 0.00 91 1023.0
20260903013053 40 255 3.0 5.0 0.00 0.00 0.00 91 1023.0
20260903012553 41 253 2.0 5.0 0.00 0.00 0.00 91 1023.0
20260903012050 41 241 3.0 5.0 0.00 0.00 0.00 91 1023.1
20260903011552 41 242 2.0 4.0 0.00 0.00 0.00 91 1023.0
20260903011051 41 244 2.0 5.0 0.00 0.00 0.00 91 1023.0
20260903010549 41 245 3.0 5.0 0.00 0.00 0.00 91 1023.0
20260903010047 42 247 2.0 5.0 0.00 0.00 0.00 91 1023.0
20260903005550 42 247 2.0 5.0 0.00 0.00 0.00 91 1023.0
20260903005046 42 256 2.0 4.0 0.00 0.00 0.00 91 1023.0
20260903004645 42 251 2.0 3.0 0.00 0.00 0.00 90 1023.1
20260903004145 42 253 3.0 4.0 0.00 0.00 0.00 90 1023.1
20260903003548 42 244 2.0 4.0 0.00 0.00 0.00 90 1023.1
20260903003042 42 276 2.0 4.0 0.00 0.00 0.00 90 1023.0
20260903002542 43 276 1.0 3.0 0.00 0.00 0.00 90 1023.0
20260903002040 43 276 2.0 4.0 0.00 0.00 0.00 90 1022.9
20260903001541 43 276 2.0 4.0 0.00 0.00 0.00 90 1022.9
20260903001040 43 276 2.0 4.0 0.00 0.00 0.00 89 1022.9
20260903000540 43 276 2.0 3.0 0.00 0.00 0.00 89 1022.9
20260903000039 44 276 3.0 5.0 0.00 0.00 0.00 89 1023.0
20260902235538 44 276 3.0 5.0 0.00 0.00 0.00 89 1022.9
20260902235037 44 276 1.0 5.0 0.00 0.00 0.00 89 1022.9
20260902234637 45 276 3.0 5.0 0.00 0.00 0.00 88 1022.9
20260902234037 45 276 2.0 4.0 0.00 0.00 0.00 87 1022.9
20260902233536 45 276 1.0 3.0 0.00 0.00 0.00 87 1022.9
20260902233035 46 276 1.0 4.0 0.00 0.00 0.00 87 1022.8
20260902232534 46 276 1.0 3.0 0.00 0.00 0.00 87 1022.9
20260902232034 46 276 2.0 3.0 0.00 0.00 0.00 86 1022.8
20260902231533 47 276 1.0 2.0 0.00 0.00 0.00 86 1022.8
20260902231031 47 276 0.0 4.0 0.00 0.00 0.00 86 1022.8
20260902230529 47 276 1.0 5.0 0.00 0.00 0.00 85 1022.7
20260902230028 48 276 3.0 5.0 0.00 0.00 0.00 83 1022.7
20260902225528 49 340 0.0 2.0 0.00 0.00 0.00 82 1022.5
20260902225028 49 350 0.0 2.0 0.00 0.00 0.00 82 1022.5
20260902224627 50 2 0.0 1.0 0.00 0.00 0.00 81 1022.4
20260902224024 50 2 0.0 1.0 0.00 0.00 0.00 81 1022.4
20260902223523 50 2 0.0 5.0 0.00 0.00 0.00 80 1022.4
20260902223028 51 7 0.0 5.0 0.00 0.00 0.00 80 1022.4
20260902222521 51 350 0.0 2.0 0.00 0.00 0.00 79 1022.3
20260902222020 51 350 0.0 2.0 0.00 0.00 0.00 78 1022.2
20260902221525 52 3 0.0 4.0 0.00 0.00 0.00 78 1022.2
20260902221021 52 3 0.0 4.0 0.00 0.00 0.00 77 1022.2
20260902220520 52 345 0.0 2.0 0.00 0.00 0.00 77 1022.2
20260902220026 52 345 0.0 6.0 0.00 0.00 0.00 76 1022.2
20260902215519 52 35 2.0 6.0 0.00 0.00 0.00 76 1022.2
20260902215018 53 29 0.0 5.0 0.00 0.00 0.00 76 1022.2
20260902214619 53 11 1.0 5.0 0.00 0.00 0.00 75 1022.2
20260902214021 53 33 1.0 5.0 0.00 0.00 0.00 75 1022.2
20260902213519 53 27 2.0 5.0 0.00 0.00 0.00 75 1022.2
20260902213019 53 47 1.0 8.0 0.00 0.00 0.00 74 1022.2
20260902212522 54 10 1.0 5.0 0.00 0.00 0.00 74 1022.2
20260902212021 54 359 1.0 6.0 0.00 0.00 0.00 73 1022.3
20260902211519 54 3 3.0 7.0 0.00 0.00 0.00 73 1022.4
20260902211018 54 30 1.0 7.0 0.00 0.00 0.00 72 1022.4
20260902210519 54 30 1.0 5.0 0.00 0.00 0.00 72 1022.5
20260902210021 55 41 1.0 8.0 0.00 0.00 0.00 73 1022.4
20260902205518 55 36 4.0 8.0 0.00 0.00 0.00 72 1022.5
20260902205019 55 340 2.0 5.0 0.00 0.00 0.00 73 1022.5
20260902204620 55 73 1.0 7.0 0.00 0.00 0.00 73 1022.5
20260902204017 55 72 3.0 8.0 0.00 0.00 0.00 72 1022.5
20260902203521 55 50 3.0 8.0 0.00 0.00 0.00 71 1022.4
20260902203017 55 33 1.0 8.0 0.00 0.00 0.00 72 1022.4
20260902202517 55 18 0.0 6.0 0.00 0.00 0.00 72 1022.4
20260902202017 55 345 1.0 9.0 0.00 0.00 0.00 72 1022.4
20260902201520 55 25 3.0 9.0 0.00 0.00 0.00 71 1022.4
20260902201016 55 16 4.0 9.0 0.00 0.00 0.00 72 1022.3
20260902200520 55 18 3.0 9.0 0.00 0.00 0.00 71 1022.3
20260902200016 55 316 4.0 10.0 0.00 0.00 0.00 71 1022.3
20260902195515 55 51 6.0 10.0 0.00 0.00 0.00 71 1022.3
20260902195016 55 340 4.0 9.0 0.00 0.00 0.00 71 1022.3
20260902194616 55 47 5.0 9.0 0.00 0.00 0.00 71 1022.3
20260902194015 55 20 4.0 9.0 0.00 0.00 0.00 70 1022.3
20260902193515 56 82 5.0 10.0 0.00 0.00 0.00 70 1022.3
20260902193015 56 76 2.0 10.0 0.00 0.00 0.00 69 1022.3
20260902192515 57 286 4.0 10.0 0.00 0.00 0.00 69 1022.3
20260902192014 57 352 4.0 10.0 0.00 0.00 0.00 69 1022.2
20260902191516 57 17 5.0 10.0 0.00 0.00 0.00 69 1022.2
20260902191014 57 299 3.0 13.0 0.00 0.00 0.00 69 1022.2
20260902190514 56 301 5.0 13.0 0.00 0.00 0.00 69 1022.2
20260902190015 56 32 3.0 9.0 0.00 0.00 0.00 70 1022.2
20260902185514 57 340 3.0 13.0 0.00 0.00 0.00 69 1022.2
20260902185014 57 10 6.0 13.0 0.00 0.00 0.00 69 1022.2
20260902184612 57 43 5.0 11.0 0.00 0.00 0.00 70 1022.2
20260902184014 57 270 6.0 11.0 0.00 0.00 0.00 69 1022.2
20260902183513 57 309 6.0 10.0 0.00 0.00 0.00 68 1022.3
20260902183015 57 3 4.0 9.0 0.00 0.00 0.00 68 1022.3
20260902182512 57 4 4.0 10.0 0.00 0.00 0.00 68 1022.3
20260902182012 57 308 1.0 10.0 0.00 0.00 0.00 69 1022.1
20260902181511 57 29 3.0 10.0 0.00 0.00 0.00 69 1022.2
20260902181010 57 313 4.0 10.0 0.00 0.00 0.00 68 1022.1
20260902180510 57 353 3.0 10.0 0.00 0.00 0.00 67 1022.0
20260902180010 57 322 5.0 11.0 0.00 0.00 0.00 68 1022.0
20260902175510 57 41 5.0 14.0 0.00 0.00 0.00 67 1022.0
20260902175009 57 41 7.0 14.0 0.00 0.00 0.00 66 1021.9
20260902174610 57 360 5.0 11.0 0.00 0.00 0.00 67 1021.9
20260902174009 57 298 5.0 11.0 0.00 0.00 0.00 67 1021.9
20260902173509 57 6 5.0 10.0 0.00 0.00 0.00 66 1022.0
20260902173009 57 31 4.0 10.0 0.00 0.00 0.00 67 1021.9
20260902172509 58 11 4.0 10.0 0.00 0.00 0.00 67 1021.9
20260902172007 57 251 4.0 9.0 0.00 0.00 0.00 66 1021.8
20260902171507 58 33 3.0 15.0 0.00 0.00 0.00 67 1021.9
20260902171006 58 331 6.0 15.0 0.00 0.00 0.00 67 1021.9
20260902170506 58 192 2.0 15.0 0.00 0.00 0.00 67 1021.8
20260902170008 58 24 6.0 15.0 0.00 0.00 0.00 67 1021.8
20260902165508 58 31 6.0 14.0 0.00 0.00 0.00 67 1021.8
20260902165007 58 360 4.0 12.0 0.00 0.00 0.00 66 1021.8
20260902164608 59 3 4.0 12.0 0.00 0.00 0.00 65 1021.8
20260902164006 59 318 1.0 9.0 0.00 0.00 0.00 65 1021.7
20260902163506 59 271 3.0 10.0 0.00 0.00 0.00 65 1021.8
20260902163005 59 292 3.0 9.0 0.00 0.00 0.00 66 1021.8
20260902162507 59 340 2.0 9.0 0.00 0.00 0.00 67 1021.8
20260902162005 58 14 3.0 10.0 0.00 0.00 0.00 67 1021.7
20260902161506 58 302 4.0 14.0 0.00 0.00 0.00 69 1021.7
20260902161005 58 288 4.0 14.0 0.00 0.00 0.00 67 1021.8
20260902160507 59 318 4.0 12.0 0.00 0.00 0.00 68 1021.8
20260902160005 59 284 5.0 12.0 0.00 0.00 0.00 68 1021.7
20260902155501 59 11 5.0 14.0 0.00 0.00 0.00 69 1021.7
20260902155101 58 218 5.0 14.0 0.00 0.00 0.00 68 1021.7
20260902154601 57 293 3.0 13.0 0.00 0.00 0.00 70 1021.6
20260902154058 57 70 4.0 13.0 0.00 0.00 0.00 70 1021.6
20260902153558 57 30 7.0 13.0 0.00 0.00 0.00 69 1021.7
20260902153058 56 301 4.0 11.0 0.00 0.00 0.00 71 1021.7
20260902152557 56 33 3.0 9.0 0.00 0.00 0.00 72 1021.7
20260902152056 56 52 4.0 9.0 0.00 0.00 0.00 72 1021.7
20260902151604 56 349 4.0 9.0 0.00 0.00 0.00 72 1021.8
20260902151056 56 315 1.0 7.0 0.00 0.00 0.00 73 1021.8
20260902150601 57 63 3.0 9.0 0.00 0.00 0.00 74 1021.7
20260902150056 56 335 2.0 9.0 0.00 0.00 0.00 73 1021.8
20260902145555 56 324 5.0 8.0 0.00 0.00 0.00 75 1021.7
20260902145055 56 335 1.0 7.0 0.00 0.00 0.00 75 1021.7
20260902144556 56 309 2.0 10.0 0.00 0.00 0.00 74 1021.8
20260902144056 56 303 3.0 12.0 0.00 0.00 0.00 74 1021.8
20260902143556 56 255 2.0 13.0 0.00 0.00 0.00 74 1021.8
20260902143056 57 360 5.0 13.0 0.00 0.00 0.00 74 1021.9
20260902142556 57 83 4.0 13.0 0.00 0.00 0.00 74 1021.8
20260902142056 57 29 6.0 13.0 0.00 0.00 0.00 73 1021.9
20260902141556 56 322 4.0 10.0 0.00 0.00 0.00 74 1022.0
20260902141055 56 304 3.0 10.0 0.00 0.00 0.00 74 1021.9
20260902140555 56 351 2.0 12.0 0.00 0.00 0.00 72 1021.9
20260902140054 56 10 4.0 9.0 0.00 0.00 0.00 71 1021.9
20260902135553 56 39 1.0 9.0 0.00 0.00 0.00 72 1022.0
20260902135053 56 21 4.0 9.0 0.00 0.00 0.00 70 1022.0
20260902134553 56 23 3.0 10.0 0.00 0.00 0.00 70 1022.0
20260902134053 56 23 4.0 10.0 0.00 0.00 0.00 70 1022.0
20260902133552 56 352 4.0 12.0 0.00 0.00 0.00 71 1022.0
20260902133103 56 29 4.0 12.0 0.00 0.00 0.00 69 1021.9
20260902132552 56 50 5.0 12.0 0.00 0.00 0.00 70 1022.0
20260902132050 56 5 6.0 12.0 0.00 0.00 0.00 71 1022.0
20260902131552 56 345 2.0 9.0 0.00 0.00 0.00 71 1022.0
20260902131050 56 313 4.0 9.0 0.00 0.00 0.00 72 1021.9
20260902130550 56 320 2.0 11.0 0.00 0.00 0.00 72 1022.0
20260902130050 56 298 7.0 11.0 0.00 0.00 0.00 72 1022.0
20260902125549 56 39 3.0 9.0 0.00 0.00 0.00 73 1022.0
20260902125052 56 40 4.0 9.0 0.00 0.00 0.00 73 1022.0
20260902124548 56 269 0.0 7.0 0.00 0.00 0.00 74 1021.9
20260902124047 56 272 0.0 7.0 0.00 0.00 0.00 74 1021.9
20260902123547 56 43 3.0 10.0 0.00 0.00 0.00 74 1021.8
20260902123049 56 207 5.0 10.0 0.00 0.00 0.00 75 1021.8
20260902122546 55 6 4.0 10.0 0.00 0.00 0.00 76 1021.7
20260902122044 55 83 2.0 10.0 0.00 0.00 0.00 77 1021.7
20260902121545 55 36 4.0 10.0 0.00 0.00 0.00 78 1021.7
20260902121044 54 46 4.0 8.0 0.00 0.00 0.00 81 1021.6
20260902120544 54 52 2.0 6.0 0.00 0.00 0.00 83 1021.6
20260902120046 54 57 0.0 5.0 0.00 0.00 0.00 83 1021.6
20260902115543 54 85 1.0 9.0 0.00 0.00 0.00 82 1021.5
20260902115044 55 20 3.0 9.0 0.00 0.00 0.00 82 1021.6
20260902114552 54 51 2.0 6.0 0.00 0.00 0.00 81 1021.6
20260902114045 54 24 3.0 6.0 0.00 0.00 0.00 81 1021.7
20260902113546 54 189 1.0 14.0 0.00 0.00 0.00 81 1021.7
20260902113045 54 83 5.0 14.0 0.00 0.00 0.00 81 1021.9
20260902112544 55 46 2.0 10.0 0.00 0.00 0.00 81 1021.7
20260902112046 55 50 3.0 8.0 0.00 0.00 0.00 80 1021.6
20260902111547 55 356 2.0 8.0 0.00 0.00 0.00 80 1021.6
20260902111042 55 37 2.0 9.0 0.00 0.00 0.00 79 1021.5
20260902110542 55 335 3.0 9.0 0.00 0.00 0.00 78 1021.4
20260902110057 55 317 3.0 9.0 0.00 0.00 0.00 79 1021.4
20260902105540 55 331 0.0 4.0 0.00 0.00 0.00 78 1021.3
20260902105041 55 20 0.0 7.0 0.00 0.00 0.00 77 1021.3
20260902104541 55 266 2.0 8.0 0.00 0.00 0.00 77 1021.4
20260902104041 55 352 2.0 8.0 0.00 0.00 0.00 77 1021.3
20260902103539 55 335 0.0 8.0 0.00 0.00 0.00 77 1021.3
20260902103041 55 349 1.0 8.0 0.00 0.00 0.00 77 1021.3
20260902102542 55 335 2.0 6.0 0.00 0.00 0.00 77 1021.2
20260902102038 55 46 3.0 6.0 0.00 0.00 0.00 78 1021.3
20260902101540 54 271 2.0 7.0 0.00 0.00 0.00 78 1021.2
20260902101036 54 37 2.0 7.0 0.00 0.00 0.00 79 1021.3
20260902100541 54 61 2.0 8.0 0.00 0.00 0.00 79 1021.2
20260902100036 54 43 3.0 8.0 0.00 0.00 0.00 79 1021.2
20260902095537 54 299 0.0 6.0 0.00 0.00 0.00 79 1021.2
20260902095034 54 329 1.0 6.0 0.00 0.00 0.00 79 1021.0
20260902094542 54 295 3.0 8.0 0.00 0.00 0.00 79 1020.9
20260902094035 54 327 2.0 8.0 0.00 0.00 0.00 79 1020.8
20260902093536 54 359 0.0 7.0 0.00 0.00 0.00 79 1020.9
20260902093034 54 340 4.0 8.0 0.00 0.00 0.00 80 1020.8
20260902092533 54 74 0.0 6.0 0.00 0.00 0.00 81 1020.7
20260902092036 54 24 2.0 8.0 0.00 0.00 0.00 81 1020.7
20260902091532 54 340 0.0 7.0 0.00 0.00 0.00 80 1020.6
20260902091032 55 49 1.0 8.0 0.00 0.00 0.00 80 1020.5
20260902090532 55 6 1.0 8.0 0.00 0.00 0.00 80 1020.5
20260902090031 55 31 1.0 11.0 0.00 0.00 0.00 80 1020.4
20260902085530 55 14 5.0 11.0 0.00 0.00 0.00 81 1020.4
20260902085030 55 63 3.0 11.0 0.00 0.00 0.00 82 1020.3
20260902084538 55 311 3.0 10.0 0.00 0.00 0.00 83 1020.1
20260902084031 55 359 2.0 9.0 0.00 0.00 0.00 83 1020.1
20260902083531 55 38 3.0 10.0 0.00 0.00 0.00 82 1020.0
20260902083028 54 63 3.0 8.0 0.00 0.00 0.00 81 1020.1
20260902082531 54 345 4.0 8.0 0.00 0.00 0.00 81 1020.0
20260902082027 54 42 1.0 5.0 0.00 0.00 0.00 81 1020.0
20260902081527 54 5 0.0 7.0 0.00 0.00 0.00 81 1020.0
20260902081027 54 317 2.0 7.0 0.00 0.00 0.00 81 1020.0
20260902080527 54 59 1.0 5.0 0.00 0.00 0.00 81 1019.9
20260902080027 54 24 2.0 6.0 0.00 0.00 0.00 81 1019.9
20260902075526 54 335 1.0 6.0 0.00 0.00 0.00 81 1019.8
20260902075025 54 33 1.0 7.0 0.00 0.00 0.00 81 1019.7
20260902074525 55 22 2.0 6.0 0.00 0.00 0.00 82 1019.6
20260902074025 55 352 2.0 6.0 0.00 0.00 0.00 82 1019.6
20260902073524 55 42 0.0 6.0 0.00 0.00 0.00 82 1019.6
20260902073024 55 340 1.0 6.0 0.00 0.00 0.00 82 1019.6
20260902072525 55 355 1.0 6.0 0.00 0.00 0.00 83 1019.6
20260902072024 55 2 2.0 5.0 0.00 0.00 0.00 83 1019.7
20260902071533 55 328 0.0 6.0 0.00 0.00 0.00 83 1019.7
20260902071026 55 25 1.0 6.0 0.00 0.00 0.00 83 1019.6
20260902070522 55 308 3.0 6.0 0.00 0.00 0.00 84 1019.6
20260902070024 55 20 1.0 5.0 0.00 0.00 0.00 85 1019.6
20260902065521 55 22 1.0 6.0 0.00 0.00 0.00 85 1019.5
20260902065021 55 39 0.0 8.0 0.00 0.00 0.00 86 1019.5
20260902064525 55 302 2.0 6.0 0.00 0.00 0.00 87 1019.5
20260902064021 55 301 2.0 6.0 0.00 0.00 0.00 87 1019.5
20260902063520 55 47 1.0 6.0 0.00 0.00 0.00 87 1019.4
20260902063030 55 335 0.0 5.0 0.00 0.00 0.00 87 1019.4
20260902062521 54 14 0.0 5.0 0.00 0.00 0.00 87 1019.3
20260902062021 54 6 0.0 6.0 0.00 0.00 0.00 88 1019.3
20260902061530 54 16 2.0 6.0 0.00 0.00 0.00 88 1019.2
20260902061017 54 349 0.0 4.0 0.00 0.00 0.00 88 1019.2
20260902060516 54 20 1.0 6.0 0.00 0.00 0.00 89 1019.1
20260902060018 54 41 2.0 6.0 0.00 0.00 0.00 90 1019.1
20260902055516 54 74 0.0 6.0 0.00 0.00 0.00 90 1019.0
20260902055016 54 59 1.0 5.0 0.00 0.00 0.00 91 1019.0
20260902054520 54 350 1.0 4.0 0.00 0.00 0.00 91 1019.0
20260902054015 54 64 1.0 4.0 0.00 0.00 0.00 91 1019.0
20260902053514 54 24 0.0 4.0 0.00 0.00 0.00 91 1018.9
20260902053021 54 319 0.0 5.0 0.00 0.00 0.00 91 1018.9
20260902052516 54 352 1.0 5.0 0.00 0.00 0.00 91 1018.9
20260902052012 53 340 0.0 1.0 0.00 0.00 0.00 91 1018.8
20260902051511 53 340 0.0 1.0 0.00 0.00 0.00 91 1018.7
20260902051010 53 340 0.0 1.0 0.00 0.00 0.00 90 1018.8
20260902050511 53 340 0.0 1.0 0.00 0.00 0.00 90 1018.8